Aérodrome :
LOGIN :

S'inscrire | Disclaimer

   EN    FR    IT 

 










Légende :    VFR   VFR Marginal   IFR   IFR Intensif   IFR Très Intensif
Visi : 
Plafond : 
>= 8 km
>= 3000ft
5 à 8 km
1000 à 3000 ft
1500m à 5 km
500 à 1000 ft
800 à 1500m
200 à 500 ft
< 800m
< 200 ft
Symboles :   Orages  Brouillard  Fortes neiges  Fortes précipitations  Vent > 20 kt
SIGMETs :   Divers  Orages  Givrage  Turbulence  Onde Orograph.  Cendres Volcan.







- Altitude de l'aérodrome : 751 ft
- Code IATA : ENC
- Voir les cartes d'approche


LFSN - Nancy Essey

DERNIER METAR :
  • 201530Z AUTO 05012KT 9999 BKN015 BKN021 OVC088 16/12 Q1017

METARs EXPIRÉS :
  • 201500Z AUTO 04010KT 010V070 9999 FEW018 SCT026 BKN034 16/13 Q1018
  • 201430Z AUTO 05008KT 010V080 9999 BKN016 BKN032 BKN045 17/13 Q1018
  • 201400Z AUTO 05014KT 9999 FEW017 BKN033 OVC041 15/12 Q1019
  • 201330Z AUTO 05012KT 9999 FEW017 BKN029 BKN036 16/12 Q1019
  • 201300Z AUTO 05011KT 020V080 9999 -RA SCT024/// SCT031/// BKN054/// ///TCU 16/12 Q1019

Prévision TAF périmée.
Pas de NOTAMs connus pour ce terrain.



MET'MAP, la Météo Aéronautique d'un coup d'oeil ! - Copyright ORBIFLY Décembre 2007 - Disclaimer

ORBIFLY MET'MAP TEAM :

Programmation & Développement : Alexandra Zaïnal
Conception & Développement : Baudouin d'Aumeries
Co-Programmation & Développement : Marc-Olivier Méhu
Soutien technique & logistique : Manuel Goepfert

Contact : metmap@orbifly.com




SOURCES & CREDITS :

   NOAA